TimeMST,TemperatureF,Dew PointF,Humidity,Sea Level PressureIn,VisibilityMPH,Wind Direction,Wind SpeedMPH,Gust SpeedMPH,PrecipitationIn,Events,Conditions,WindDirDegrees,DateUTC
12:53 AM,26.1,25.0,96,30.33,10.0,Calm,Calm,-,N/A,,Clear,0,2013-02-01 07:53:00
1:53 AM,27.0,26.1,96,30.32,10.0,Calm,Calm,-,N/A,,Clear,0,2013-02-01 08:53:00
2:53 AM,27.0,26.1,96,30.32,10.0,Calm,Calm,-,N/A,,Clear,0,2013-02-01 09:53:00
3:53 AM,24.1,23.0,96,30.32,5.0,Calm,Calm,-,N/A,,Clear,0,2013-02-01 10:53:00
4:53 AM,24.1,23.0,96,30.34,7.0,Calm,Calm,-,N/A,,Clear,0,2013-02-01 11:53:00
5:53 AM,23.0,21.9,96,30.35,10.0,Calm,Calm,-,N/A,,Clear,0,2013-02-01 12:53:00
6:53 AM,21.9,21.0,96,30.36,10.0,SE,3.5,-,N/A,,Clear,140,2013-02-01 13:53:00
7:53 AM,23.0,21.9,96,30.37,7.0,East,5.8,-,N/A,,Clear,80,2013-02-01 14:53:00
8:53 AM,27.0,24.1,89,30.35,10.0,East,6.9,-,N/A,,Clear,90,2013-02-01 15:53:00
9:53 AM,30.9,25.0,79,30.36,10.0,SE,3.5,-,N/A,,Clear,140,2013-02-01 16:53:00
10:53 AM,30.9,28.0,89,30.36,10.0,WNW,3.5,-,N/A,,Clear,300,2013-02-01 17:53:00
11:53 AM,34.0,28.0,79,30.35,10.0,NNW,3.5,-,N/A,,Clear,330,2013-02-01 18:53:00
12:53 PM,37.0,28.0,70,30.32,10.0,WNW,3.5,-,N/A,,Clear,300,2013-02-01 19:53:00
1:53 PM,37.9,27.0,65,30.29,10.0,WNW,4.6,-,N/A,,Clear,300,2013-02-01 20:53:00
2:53 PM,37.9,28.0,68,30.29,10.0,NW,5.8,-,N/A,,Clear,310,2013-02-01 21:53:00
3:53 PM,39.0,27.0,62,30.31,10.0,NW,5.8,-,N/A,,Clear,310,2013-02-01 22:53:00
4:53 PM,37.0,30.0,76,30.32,10.0,NW,5.8,-,N/A,,Clear,320,2013-02-01 23:53:00
5:53 PM,33.1,28.9,85,30.35,10.0,NNW,5.8,-,N/A,,Clear,340,2013-02-02 00:53:00
6:53 PM,33.1,28.0,82,30.37,10.0,Calm,Calm,-,N/A,,Clear,0,2013-02-02 01:53:00
7:53 PM,32.0,28.0,85,30.39,10.0,ENE,3.5,-,N/A,,Clear,60,2013-02-02 02:53:00
8:53 PM,30.0,28.0,92,30.40,10.0,Calm,Calm,-,N/A,,Clear,0,2013-02-02 03:53:00
9:53 PM,30.9,28.0,89,30.40,10.0,ENE,4.6,-,N/A,,Clear,60,2013-02-02 04:53:00
10:53 PM,28.0,27.0,96,30.43,10.0,Calm,Calm,-,N/A,,Clear,0,2013-02-02 05:53:00
11:53 PM,28.0,26.1,92,30.43,10.0,ESE,3.5,-,N/A,,Clear,110,2013-02-02 06:53:00